Location: Dodgeville
(42.9600°N, 90.1300°W)
Time: 17:43:23
(UTC-05:00)

Amateur Radio Satellites - All Passes

Search period start: 30 August 2015 17:13
Search period end: 31 August 2015 17:13
Location: Dodgeville, 42.9600°N, 90.1300°W

Satellite Date Start Highest point End Downlink Frequencies (MHz)
Time Altitude Azimuth
BEESAT 3 30 Aug 17:28:46 17:31:20 16° 321° (NW) 17:33:49 437.485
BEESAT 2 30 Aug 17:38:30 17:41:12 16° 321° (NW) 17:43:49 435.950
RS-15 30 Aug 17:57:51 18:08:47 68° 310° (NW) 18:20:12 29.354- 29.394
STARS 30 Aug 18:00:19 18:02:54 15° 297° (WNW) 18:05:20 437.465
AIST 2 30 Aug 18:03:15 18:07:09 34° 312° (NW) 18:11:03 435.215
Cubesat XI-IV 30 Aug 18:04:26 18:09:36 56° 72° (ENE) 18:14:49 437.490
MOZHAYETS 4 30 Aug 18:16:03 18:20:15 36° 290° (WNW) 18:24:22
BRITE-PL 30 Aug 18:27:43 18:29:51 14° 61° (ENE) 18:32:16 437.365/2234.400
CUBESAT XI-V 30 Aug 18:28:46 18:32:46 29° 94° (E) 18:36:50 437.345
CUTE-I 30 Aug 18:49:48 18:55:04 60° 259° (W) 19:00:20 437.470
GOMX 1 30 Aug 19:02:39 19:05:45 19° 63° (ENE) 19:09:08 467.674
Cosmos 2491 30 Aug 19:06:54 19:13:22 23° 61° (ENE) 19:20:10 435.465 / 435.565
CANX-2 30 Aug 19:22:25 19:24:16 13° 64° (ENE) 19:26:17 2200.000
STRAND 1 30 Aug 19:22:33 19:26:50 27° 94° (E) 19:31:12 437.568
DOVE 4 30 Aug 19:22:52 19:26:01 19° 63° (ENE) 19:29:27 437.250
PRISM 30 Aug 19:31:33 19:34:35 20° 93° (E) 19:37:44 437.425
AIST 1 30 Aug 19:37:19 19:41:38 67° 81° (E) 19:45:57
SEEDS 30 Aug 19:45:33 19:48:06 16° 65° (ENE) 19:50:48 437.485
Cubesat XI-IV 30 Aug 19:46:14 19:50:07 20° 269° (W) 19:53:50 437.490
O/OREOS (USA 219) 30 Aug 19:47:15 19:51:47 85° 110° (ESE) 19:56:23 437.305
HO-68 30 Aug 19:54:56 20:01:40 47° 66° (ENE) 20:08:30 435.675
BRITE-PL 30 Aug 20:03:30 20:07:48 66° 260° (W) 20:12:27 437.365/2234.400
CUBESAT XI-V 30 Aug 20:06:08 20:10:11 30° 291° (WNW) 20:14:12 437.345
COMPASS 1 30 Aug 20:08:59 20:12:11 22° 68° (ENE) 20:15:28 437.405
RS-15 30 Aug 20:14:32 20:23:56 29° 340° (NNW) 20:33:33 29.354- 29.394
CINEMA 3 30 Aug 20:17:12 20:21:11 29° 68° (ENE) 20:25:24 145.822/145.860
CUBEBUG 2 30 Aug 20:18:19 20:20:42 14° 62° (ENE) 20:23:18 437.445
AAUSAT CUBESAT 2 30 Aug 20:20:11 20:23:33 24° 68° (ENE) 20:26:58 437.432
UWE-3 30 Aug 20:28:10 20:30:27 14° 63° (ENE) 20:32:57 435.000/436.395/437.385
FUNcube-1 30 Aug 20:31:38 20:32:40 11° 61° (ENE) 20:33:57 145.935
GOMX 1 30 Aug 20:39:09 20:43:30 49° 263° (W) 20:48:09 467.674
CUTE 1.7 + AOD 2 30 Aug 20:41:35 20:45:52 78° 77° (ENE) 20:50:11 437.475
DELFI C3 30 Aug 20:54:24 20:56:55 17° 66° (ENE) 20:59:33 145.870
CANX-2 30 Aug 20:55:26 20:59:42 66° 259° (W) 21:03:59 2200.000
DOVE 4 30 Aug 20:58:54 21:03:22 51° 262° (W) 21:08:07 437.250
STRAND 1 30 Aug 21:01:26 21:06:09 38° 291° (WNW) 21:10:48 437.568
Cosmos 2491 30 Aug 21:02:40 21:11:27 81° 264° (W) 21:20:13 435.465 / 435.565
PRISM 30 Aug 21:06:24 21:10:08 33° 290° (WNW) 21:13:49 437.425
YUBILEINY 30 Aug 21:11:19 21:19:40 53° 90° (E) 21:28:10 435.215
AIST 1 30 Aug 21:17:41 21:18:45 11° 275° (W) 21:19:34
Oscar 11 30 Aug 21:17:58 21:22:08 46° 72° (ENE) 21:26:20 145.826/435.025
SEEDS 30 Aug 21:19:24 21:23:32 49° 261° (W) 21:27:41 437.485
HUMSAT D 30 Aug 21:20:08 21:22:12 14° 64° (ENE) 21:24:27 437.325/437.525
O/OREOS (USA 219) 30 Aug 21:29:46 21:31:57 13° 312° (NW) 21:33:58 437.305
HO-68 30 Aug 21:43:05 21:49:35 35° 264° (W) 21:56:02 435.675
COMPASS 1 30 Aug 21:43:48 21:47:40 34° 264° (W) 21:51:30 437.405
CUBEBUG 2 30 Aug 21:52:12 21:56:50 70° 260° (W) 22:01:34 437.445
CINEMA 3 30 Aug 21:54:04 21:58:17 32° 266° (W) 22:02:39 145.822/145.860
AAUSAT CUBESAT 2 30 Aug 21:55:17 21:59:02 30° 265° (W) 22:02:43 437.432
VELOX 1 30 Aug 21:56:05 21:57:57 13° 62° (ENE) 22:00:01 145.980
ZACube-1 30 Aug 21:57:48 22:02:20 81° 76° (ENE) 22:06:58 437.345
UWE-3 30 Aug 22:01:50 22:06:25 71° 258° (WSW) 22:11:06 435.000/436.395/437.385
FUNcube-1 30 Aug 22:03:47 22:08:19 90° 296° (WNW) 22:12:56 145.935
ANTELSAT 30 Aug 22:20:48 22:22:28 12° 87° (E) 22:24:22 437.575/2403.000
DELFI C3 30 Aug 22:27:48 22:31:40 43° 262° (W) 22:35:33 145.870
RS-15 30 Aug 22:32:02 22:41:17 27° 15° (NNE) 22:51:00 29.354- 29.394
DX 1 30 Aug 22:43:53 22:48:09 61° 73° (ENE) 22:52:27 434.975-435.025
ESTCUBE 1 30 Aug 22:43:57 22:47:47 29° 69° (ENE) 22:51:42 437.505/2401.250
HUMSAT D 30 Aug 22:53:10 22:57:27 63° 259° (W) 23:01:46 437.325/437.525
Oscar 11 30 Aug 22:55:44 22:58:36 17° 270° (W) 23:01:20 145.826/435.025
Cosmos 2504 30 Aug 22:56:26 23:03:23 34° 85° (E) 23:10:50 435.465 / 435.565
UKube-1 30 Aug 22:58:21 23:02:39 80° 75° (ENE) 23:07:00 .
POLYITAN 1 30 Aug 22:59:24 23:00:01 10° 87° (E) 23:00:56 437.675
AISAT 30 Aug 23:01:03 23:05:23 60° 73° (ENE) 23:09:47 437.250
POPSAT HIP 1 30 Aug 23:02:04 23:03:08 11° 87° (E) 23:04:29 437.405
Cosmos 2491 30 Aug 23:02:04 23:07:05 16° 283° (WNW) 23:11:33 435.465 / 435.565
DUCHIFAT 1 30 Aug 23:03:39 23:04:41 11° 87° (E) 23:05:58 145.980
CUBEBUG 1 30 Aug 23:05:42 23:09:41 39° 71° (ENE) 23:13:45 437.445
SPROUT 30 Aug 23:07:57 23:10:01 14° 63° (ENE) 23:12:16 437.525
YUBILEINY 30 Aug 23:08:53 23:16:53 36° 291° (WNW) 23:24:48 435.215
UNISAT 6 30 Aug 23:09:44 23:14:03 39° 97° (E) 23:18:16 437.425
AUBIESAT-1 30 Aug 23:10:28 23:13:22 20° 97° (E) 23:16:10 437.475
M-CUBED/EXP-1 PRIME 30 Aug 23:14:17 23:17:42 26° 99° (E) 23:20:54 437.505
50 SAT 30 Aug 23:14:43 23:18:41 82° 257° (WSW) 23:22:41 437.505
QB50P2 30 Aug 23:17:15 23:20:04 17° 91° (E) 23:23:01 145.880/145.840
NANOSAT C BR1 30 Aug 23:19:13 23:22:02 17° 91° (E) 23:24:58 145.865
VELOX 1 30 Aug 23:29:36 23:33:59 70° 258° (WSW) 23:38:24 145.980
QB50P1 30 Aug 23:31:53 23:35:22 24° 94° (E) 23:38:54 145.935-145.965
ZACube-1 30 Aug 23:38:36 23:39:23 10° 275° (W) 23:39:53 437.345
TIGRISAT 30 Aug 23:38:37 23:43:15 78° 103° (ESE) 23:47:44 435.000
ANTELSAT 30 Aug 23:55:15 23:59:51 69° 285° (WNW) 00:04:18 437.575/2403.000
BEESAT 3 31 Aug 00:06:28 00:10:28 56° 53° (NE) 00:14:23 437.485
CUSAT 1 31 Aug 00:10:44 00:14:14 36° 90° (E) 00:18:50 437.405
TISAT 1 31 Aug 00:14:26 00:18:18 38° 71° (ENE) 00:22:15 437.305
BEESAT 2 31 Aug 00:16:50 00:20:50 54° 52° (NE) 00:24:46 435.950
ESTCUBE 1 31 Aug 00:20:45 00:24:39 28° 265° (W) 00:28:29 437.505/2401.250
DX 1 31 Aug 00:22:53 00:24:53 13° 271° (W) 00:26:40 434.975-435.025
DANDE 31 Aug 00:31:00 00:34:04 32° 89° (E) 00:38:01 436.750
POLYITAN 1 31 Aug 00:32:11 00:36:31 73° 284° (WNW) 00:40:47 437.675
BEESAT 31 Aug 00:34:05 00:36:16 13° 61° (ENE) 00:38:39 436.000
POPSAT HIP 1 31 Aug 00:35:16 00:39:34 69° 285° (WNW) 00:43:49 437.405
DUCHIFAT 1 31 Aug 00:36:45 00:41:02 69° 286° (WNW) 00:45:16 145.980
AISAT 31 Aug 00:40:14 00:42:26 13° 271° (W) 00:44:26 437.250
SPROUT 31 Aug 00:41:22 00:45:37 62° 259° (W) 00:49:55 437.525
CUBEBUG 1 31 Aug 00:43:02 00:46:14 19° 268° (W) 00:49:20 437.445
AUBIESAT-1 31 Aug 00:44:37 00:48:13 31° 296° (WNW) 00:51:31 437.475
RS-15 31 Aug 00:45:34 00:57:05 57° 45° (NE) 01:09:05 29.354- 29.394
AIST 2 31 Aug 00:45:36 00:49:08 26° 45° (NE) 00:52:41 435.215
UNISAT 6 31 Aug 00:47:01 00:50:35 22° 294° (WNW) 00:54:00 437.425
Cosmos 2504 31 Aug 00:47:18 00:55:15 55° 285° (WNW) 01:03:37 435.465 / 435.565
M-CUBED/EXP-1 PRIME 31 Aug 00:49:02 00:52:26 25° 298° (WNW) 00:55:32 437.505
BUGSAT 1 31 Aug 00:49:15 00:53:31 79° 284° (WNW) 00:57:47 437.445
SO-50 31 Aug 00:50:37 00:54:06 21° 112° (ESE) 00:57:47 436.795
QB50P2 31 Aug 00:52:06 00:56:12 43° 288° (WNW) 01:00:16 145.880/145.840
NANOSAT C BR1 31 Aug 00:54:01 00:58:06 43° 288° (WNW) 01:02:09 145.865
SWISSCUBE 31 Aug 00:58:03 01:01:49 24° 66° (ENE) 01:05:40 437.505
QB50P1 31 Aug 01:07:26 01:11:15 31° 291° (WNW) 01:15:01 145.935-145.965
PCSat 31 Aug 01:09:39 01:12:15 14° 105° (ESE) 01:15:09 145.827
TIGRISAT 31 Aug 01:17:22 01:19:22 12° 299° (WNW) 01:21:10 435.000
ITUPSAT 1 31 Aug 01:35:04 01:39:39 48° 71° (ENE) 01:44:16 437.325
BEESAT 3 31 Aug 01:45:48 01:47:58 14° 249° (WSW) 01:49:57 437.485
TISAT 1 31 Aug 01:51:10 01:54:14 19° 268° (W) 01:57:13 437.305
CUSAT 1 31 Aug 01:54:04 01:57:11 20° 299° (WNW) 02:00:49 437.405
BEESAT 2 31 Aug 01:56:09 01:58:28 15° 249° (WSW) 02:00:37 435.950
GONETS M04 31 Aug 02:00:41 02:07:05 25° 82° (E) 02:13:50
KKS-1 31 Aug 02:01:39 02:04:17 16° 64° (ENE) 02:07:06 437.445
BEESAT 31 Aug 02:08:46 02:13:33 77° 258° (WSW) 02:18:21 436.000
Oscar 19 31 Aug 02:12:32 02:17:35 49° 99° (E) 02:22:37 437.125/150
DANDE 31 Aug 02:15:03 02:17:35 17° 300° (WNW) 02:20:26 436.750
AIST 2 31 Aug 02:23:56 02:27:47 35° 243° (WSW) 02:31:32 435.215
SO-50 31 Aug 02:29:35 02:34:18 53° 309° (NW) 02:39:09 436.795
SWISSCUBE 31 Aug 02:35:01 02:39:29 39° 263° (W) 02:43:56 437.505
Gurwin Techsat 1B 31 Aug 02:45:31 02:50:12 32° 95° (E) 02:54:57 435.225
Cosmos 2504 31 Aug 02:47:28 02:50:02 11° 310° (NW) 02:52:00 435.465 / 435.565
PCSat 31 Aug 02:49:37 02:55:03 82° 303° (WNW) 03:00:31 145.827
RS-15 31 Aug 02:58:20 03:09:37 50° 248° (WSW) 03:21:03 29.354- 29.394
ITAMSAT 1 31 Aug 03:09:12 03:14:05 42° 98° (E) 03:19:01 435.822/435.867
ITUPSAT 1 31 Aug 03:14:25 03:17:51 19° 269° (W) 03:21:08 437.325
STARS 31 Aug 03:19:57 03:24:17 59° 73° (ENE) 03:28:40 437.465
AO-7 31 Aug 03:22:19 03:26:19 15° 85° (E) 03:30:55 29.400- 29.500
Cosmos 2499 31 Aug 03:32:05 03:38:27 25° 81° (E) 03:45:21 435.465 / 435.565
KKS-1 31 Aug 03:36:08 03:40:31 56° 260° (W) 03:44:56 437.445
MOZHAYETS 4 31 Aug 03:42:09 03:45:53 25° 68° (ENE) 03:49:42
JAS-2 31 Aug 03:47:36 03:54:37 57° 98° (E) 04:00:47 435.910
Oscar 19 31 Aug 03:52:35 03:56:39 23° 296° (WNW) 04:00:34 437.125/150
GONETS M04 31 Aug 03:54:31 04:03:11 72° 281° (W) 04:11:56
SO-50 31 Aug 04:13:51 04:16:02 13° 331° (NNW) 04:18:05 436.795
O/OREOS (USA 219) 31 Aug 04:17:45 04:21:20 22° 54° (NE) 04:24:58 437.305
Gurwin Techsat 1B 31 Aug 04:25:25 04:30:13 34° 292° (WNW) 04:34:56 435.225
PCSat 31 Aug 04:35:53 04:39:24 17° 322° (NW) 04:42:46 145.827
HORYU 2 31 Aug 04:37:50 04:42:02 39° 98° (E) 04:46:13 437.375
ITAMSAT 1 31 Aug 04:49:08 04:53:25 26° 295° (WNW) 04:57:36 435.822/435.867
VERMONT LUNAR 31 Aug 04:54:35 04:57:14 30° 163° (SSE) 04:59:55 437.305
STARS 31 Aug 04:58:52 05:01:11 14° 271° (W) 05:03:18 437.465
AO-7 31 Aug 05:12:21 05:20:41 77° 106° (ESE) 05:28:59 29.400- 29.500
MOZHAYETS 4 31 Aug 05:18:45 05:22:58 34° 264° (W) 05:27:11
Cosmos 2499 31 Aug 05:22:22 05:30:49 73° 281° (W) 05:39:44 435.465 / 435.565
CUBESAT XI-V 31 Aug 05:33:05 05:37:06 31° 69° (ENE) 05:41:10 437.345
JAS-2 31 Aug 05:33:14 05:39:13 29° 299° (WNW) 05:44:31 435.910
O/OREOS (USA 219) 31 Aug 05:56:36 06:00:59 43° 253° (WSW) 06:05:19 437.305
GONETS M04 31 Aug 05:57:04 06:02:04 15° 306° (NW) 06:06:34
HORYU 2 31 Aug 06:15:00 06:18:26 21° 294° (WNW) 06:21:45 437.375
Cubesat XI-IV 31 Aug 06:21:34 06:25:23 20° 91° (E) 06:29:22 437.490
PRISM 31 Aug 06:22:51 06:25:36 18° 66° (ENE) 06:28:27 437.425
VERMONT LUNAR 31 Aug 06:30:30 06:33:25 53° 179° (S) 06:36:20 437.305
STRAND 1 31 Aug 06:39:10 06:43:56 43° 70° (ENE) 06:48:46 437.568
PHONESAT 2.4 31 Aug 06:57:35 07:00:37 30° 161° (SSE) 07:03:40 2401.200-2431.200
CUTE-I 31 Aug 07:05:54 07:11:04 51° 99° (E) 07:16:15 437.470
AO-7 31 Aug 07:06:07 07:12:48 27° 305° (NW) 07:19:14 29.400- 29.500
CUBESAT XI-V 31 Aug 07:10:37 07:14:33 27° 266° (W) 07:18:27 437.345
Cosmos 2499 31 Aug 07:20:36 07:25:58 17° 305° (NW) 07:30:58 435.465 / 435.565
YUBILEINY 31 Aug 07:20:38 07:27:46 27° 64° (ENE) 07:35:06 435.215
PRISM 31 Aug 07:56:53 08:00:46 40° 261° (W) 08:04:38 437.425
Cubesat XI-IV 31 Aug 08:00:41 08:05:52 53° 289° (WNW) 08:11:02 437.490
BRITE-PL 31 Aug 08:06:24 08:11:33 41° 96° (E) 08:16:55 437.365/2234.400
VERMONT LUNAR 31 Aug 08:06:54 08:09:37 32° 196° (SSW) 08:12:21 437.305
AIST 1 31 Aug 08:07:47 08:11:41 36° 92° (E) 08:15:37
Cosmos 2491 31 Aug 08:10:38 08:17:01 25° 82° (E) 08:23:44 435.465 / 435.565
STRAND 1 31 Aug 08:19:15 08:23:22 24° 267° (W) 08:27:23 437.568
CUTE 1.7 + AOD 2 31 Aug 08:27:48 08:29:31 12° 88° (E) 08:31:26 437.475
PHONESAT 2.4 31 Aug 08:34:53 08:38:13 56° 178° (S) 08:41:34 2401.200-2431.200
GOMX 1 31 Aug 08:39:15 08:44:31 49° 98° (E) 08:49:51 467.674
CANX-2 31 Aug 08:40:36 08:43:40 20° 92° (E) 08:46:48 2200.000
Cosmos 2504 31 Aug 08:43:59 08:46:23 12° 50° (NE) 08:49:21 435.465 / 435.565
CUTE-I 31 Aug 08:46:43 08:50:52 23° 296° (WNW) 08:54:52 437.470
DOVE 4 31 Aug 08:56:37 09:01:41 44° 97° (E) 09:06:44 437.250
ISS 31 Aug 08:57:31 09:00:10 24° 136° (SE) 09:02:52 145.825
SEEDS 31 Aug 09:03:08 09:06:32 24° 93° (E) 09:10:00 437.485
HO-68 31 Aug 09:08:50 09:15:39 44° 98° (E) 09:22:29 435.675
YUBILEINY 31 Aug 09:16:43 09:25:31 70° 266° (W) 09:34:12 435.215
SO-50 31 Aug 09:20:10 09:24:27 28° 43° (NE) 09:28:42 436.795
ANTELSAT 31 Aug 09:20:32 09:22:53 14° 62° (ENE) 09:25:27 437.575/2403.000
COMPASS 1 31 Aug 09:25:59 09:29:45 33° 96° (E) 09:33:33 437.405
AAUSAT CUBESAT 2 31 Aug 09:36:45 09:40:37 37° 97° (E) 09:44:28 437.432
CUBEBUG 2 31 Aug 09:43:08 09:46:56 24° 92° (E) 09:50:43 437.445
BRITE-PL 31 Aug 09:45:10 09:49:55 30° 292° (WNW) 09:54:44 437.365/2234.400
AIST 1 31 Aug 09:46:25 09:49:31 19° 290° (WNW) 09:52:31
ZACube-1 31 Aug 09:47:06 09:49:39 15° 88° (E) 09:52:20 437.345
CINEMA 3 31 Aug 09:47:24 09:52:23 60° 100° (E) 09:57:14 145.822/145.860
UWE-3 31 Aug 09:51:39 09:55:16 23° 92° (E) 09:58:53 435.000/436.395/437.385
FUNcube-1 31 Aug 09:52:35 09:55:26 17° 90° (E) 09:58:22 145.935
PCSat 31 Aug 09:54:15 09:57:58 19° 40° (NE) 10:01:48 145.827
POLYITAN 1 31 Aug 09:54:24 09:54:36 10° 61° (ENE) 09:55:02 437.675
POPSAT HIP 1 31 Aug 09:56:46 09:57:27 10° 61° (ENE) 09:58:22 437.405
AUBIESAT-1 31 Aug 09:57:07 10:01:27 37° 65° (ENE) 10:05:46 437.475
DUCHIFAT 1 31 Aug 09:58:03 09:58:31 10° 61° (ENE) 09:59:13 145.980
M-CUBED/EXP-1 PRIME 31 Aug 10:01:28 10:06:04 48° 67° (ENE) 10:10:38 437.505
CUTE 1.7 + AOD 2 31 Aug 10:01:42 10:05:53 58° 286° (WNW) 10:10:00 437.475
Cosmos 2491 31 Aug 10:04:27 10:13:08 73° 281° (W) 10:21:52 435.465 / 435.565
DELFI C3 31 Aug 10:06:09 10:09:15 22° 93° (E) 10:12:24 145.870
UNISAT 6 31 Aug 10:09:08 10:13:29 40° 71° (ENE) 10:17:55 437.425
QB50P2 31 Aug 10:11:34 10:14:05 16° 64° (ENE) 10:16:46 145.880/145.840
PHONESAT 2.4 31 Aug 10:12:41 10:15:54 40° 194° (SSW) 10:19:06 2401.200-2431.200
NANOSAT C BR1 31 Aug 10:13:10 10:15:38 16° 64° (ENE) 10:18:15 145.865
CANX-2 31 Aug 10:15:50 10:19:44 36° 289° (WNW) 10:23:35 2200.000
GOMX 1 31 Aug 10:17:57 10:22:21 25° 294° (WNW) 10:26:41 467.674
QB50P1 31 Aug 10:25:45 10:28:55 21° 67° (ENE) 10:32:12 145.935-145.965
Cosmos 2504 31 Aug 10:32:43 10:41:06 57° 76° (ENE) 10:49:01 435.465 / 435.565
ISS 31 Aug 10:33:16 10:36:25 46° 333° (NNW) 10:39:34 145.825
DOVE 4 31 Aug 10:34:47 10:39:11 26° 294° (WNW) 10:43:28 437.250
HUMSAT D 31 Aug 10:37:07 10:40:09 19° 91° (E) 10:43:16 437.325/437.525
TIGRISAT 31 Aug 10:37:36 10:42:16 75° 75° (ENE) 10:47:00 435.000
SEEDS 31 Aug 10:38:41 10:42:21 29° 290° (WNW) 10:45:55 437.485
Oscar 11 31 Aug 10:40:12 10:44:32 85° 103° (ESE) 10:48:50 145.826/435.025
CUSAT 1 31 Aug 10:43:10 10:50:29 47° 73° (ENE) 10:58:24 437.405
UKube-1 31 Aug 10:46:49 10:48:31 12° 89° (E) 10:50:26 .
50 SAT 31 Aug 10:52:00 10:52:08 10° 88° (E) 10:52:30 437.505
AISAT 31 Aug 10:53:18 10:54:18 11° 87° (E) 10:55:35 437.250
ANTELSAT 31 Aug 10:54:27 10:59:07 72° 259° (WSW) 11:03:52 437.575/2403.000
HO-68 31 Aug 10:56:45 11:03:20 39° 297° (WNW) 11:09:48 435.675
SO-50 31 Aug 11:00:27 11:05:12 46° 242° (WSW) 11:09:47 436.795
COMPASS 1 31 Aug 11:02:03 11:05:15 21° 292° (WNW) 11:08:20 437.405
DANDE 31 Aug 11:06:13 11:13:19 49° 74° (ENE) 11:21:29 436.750
AAUSAT CUBESAT 2 31 Aug 11:12:58 11:15:58 19° 293° (WNW) 11:18:52 437.432
YUBILEINY 31 Aug 11:16:57 11:20:52 13° 285° (WNW) 11:24:06 435.215
CUBEBUG 2 31 Aug 11:19:23 11:23:43 36° 290° (WNW) 11:27:52 437.445
VELOX 1 31 Aug 11:19:47 11:23:05 21° 92° (E) 11:26:30 145.980
ZACube-1 31 Aug 11:21:59 11:26:24 53° 287° (WNW) 11:30:42 437.345
POLYITAN 1 31 Aug 11:25:35 11:29:52 87° 254° (WSW) 11:34:12 437.675
CINEMA 3 31 Aug 11:25:41 11:29:06 18° 297° (WNW) 11:32:20 145.822/145.860
UWE-3 31 Aug 11:27:40 11:31:56 37° 290° (WNW) 11:36:02 435.000/436.395/437.385
FUNcube-1 31 Aug 11:27:43 11:32:05 48° 288° (WNW) 11:36:18 145.935
POPSAT HIP 1 31 Aug 11:28:28 11:32:43 83° 257° (WSW) 11:37:02 437.405
DUCHIFAT 1 31 Aug 11:29:29 11:33:43 84° 257° (WSW) 11:38:00 145.980
AUBIESAT-1 31 Aug 11:32:11 11:36:11 26° 261° (W) 11:40:06 437.475
PCSat 31 Aug 11:36:42 11:42:10 86° 241° (WSW) 11:47:35 145.827
M-CUBED/EXP-1 PRIME 31 Aug 11:37:22 11:41:02 21° 263° (W) 11:44:34 437.505
BUGSAT 1 31 Aug 11:39:51 11:43:55 80° 76° (ENE) 11:48:03 437.445
DELFI C3 31 Aug 11:40:50 11:44:21 29° 290° (WNW) 11:47:47 145.870
QB50P2 31 Aug 11:45:26 11:49:36 51° 261° (W) 11:53:48 145.880/145.840
UNISAT 6 31 Aug 11:46:43 11:50:26 22° 268° (W) 11:54:03 437.425
NANOSAT C BR1 31 Aug 11:46:55 11:51:04 51° 260° (W) 11:55:15 145.865
PHONESAT 2.4 31 Aug 11:51:26 11:53:17 14° 209° (SSW) 11:55:04 2401.200-2431.200
Oscar 19 31 Aug 11:55:21 11:56:43 11° 58° (ENE) 11:58:22 437.125/150
QB50P1 31 Aug 12:00:39 12:04:34 36° 263° (W) 12:08:32 145.935-145.965
Cosmos 2491 31 Aug 12:06:56 12:12:00 16° 305° (NW) 12:16:33 435.465 / 435.565
DX 1 31 Aug 12:07:14 12:11:39 80° 283° (WNW) 12:16:01 434.975-435.025
GONETS M04 31 Aug 12:09:44 12:12:59 13° 51° (NE) 12:16:52
ISS 31 Aug 12:11:00 12:13:24 19° 353° (N) 12:15:46 145.825
ESTCUBE 1 31 Aug 12:11:37 12:16:03 55° 100° (E) 12:20:29 437.505/2401.250
HUMSAT D 31 Aug 12:12:06 12:16:03 37° 289° (WNW) 12:19:54 437.325/437.525
TIGRISAT 31 Aug 12:17:47 12:19:39 12° 274° (W) 12:21:14 435.000
Oscar 11 31 Aug 12:19:22 12:20:06 10° 299° (WNW) 12:20:37 145.826/435.025
UKube-1 31 Aug 12:20:49 12:25:07 63° 287° (WNW) 12:29:25 .
50 SAT 31 Aug 12:23:18 12:27:09 60° 286° (WNW) 12:30:55 437.505
Cosmos 2504 31 Aug 12:25:35 12:32:54 32° 276° (W) 12:39:42 435.465 / 435.565
CUSAT 1 31 Aug 12:25:49 12:33:01 42° 269° (W) 12:40:33 437.405
AISAT 31 Aug 12:26:59 12:31:29 75° 286° (WNW) 12:35:57 437.250
SPROUT 31 Aug 12:27:40 12:30:58 21° 92° (E) 12:34:20 437.525
CUBEBUG 1 31 Aug 12:29:17 12:33:42 71° 102° (ESE) 12:38:07 437.445
DANDE 31 Aug 12:49:29 12:56:26 40° 268° (W) 13:04:05 436.750
ITAMSAT 1 31 Aug 12:54:21 12:54:26 10° 57° (ENE) 12:54:50 435.822/435.867
VELOX 1 31 Aug 12:55:38 12:59:49 39° 289° (WNW) 13:03:57 145.980
PCSat 31 Aug 13:22:53 13:24:52 12° 256° (WSW) 13:26:30 145.827
Oscar 19 31 Aug 13:30:08 13:35:17 78° 73° (ENE) 13:40:30 437.125/150
TISAT 1 31 Aug 13:33:04 13:37:20 62° 101° (E) 13:41:33 437.305
ITUPSAT 1 31 Aug 13:37:05 13:38:26 11° 87° (E) 13:40:04 437.325
ISS 31 Aug 13:48:01 13:50:35 21° 13° (NNE) 13:53:10 145.825
ESTCUBE 1 31 Aug 13:49:41 13:52:32 16° 296° (WNW) 13:55:13 437.505/2401.250
JAS-2 31 Aug 13:59:09 14:05:47 34° 63° (ENE) 14:12:38 435.910
SPROUT 31 Aug 14:03:10 14:07:10 36° 289° (WNW) 14:11:06 437.525
GONETS M04 31 Aug 14:03:33 14:12:14 61° 76° (ENE) 14:20:59
Gurwin Techsat 1B 31 Aug 14:07:19 14:12:29 55° 72° (ENE) 14:17:41 435.225
CUBEBUG 1 31 Aug 14:07:30 14:09:33 13° 297° (WNW) 14:11:25 437.445
BEESAT 31 Aug 14:08:37 14:12:29 25° 94° (E) 14:16:26 436.000
AO-7 31 Aug 14:21:45 14:28:16 27° 55° (NE) 14:34:58 29.400- 29.500
ITAMSAT 1 31 Aug 14:27:58 14:33:06 70° 74° (ENE) 14:38:17 435.822/435.867
SWISSCUBE 31 Aug 14:34:00 14:38:37 48° 100° (E) 14:43:13 437.505
TISAT 1 31 Aug 15:10:24 15:12:38 14° 297° (WNW) 15:14:41 437.305
ITUPSAT 1 31 Aug 15:12:13 15:17:01 79° 284° (WNW) 15:21:45 437.325
STARS 31 Aug 15:12:14 15:12:15 10° 87° (E) 15:12:34 437.465
Oscar 19 31 Aug 15:12:48 15:15:21 13° 273° (W) 15:17:37 437.125/150
RS-15 31 Aug 15:13:10 15:21:24 27° 104° (ESE) 15:30:18 29.354- 29.394
Cosmos 2499 31 Aug 15:13:10 15:21:29 47° 72° (ENE) 15:29:19 435.465 / 435.565
ISS 31 Aug 15:24:09 15:27:24 73° 31° (NNE) 15:30:39 145.825
KKS-1 31 Aug 15:26:39 15:30:24 26° 94° (E) 15:34:11 437.445
HORYU 2 31 Aug 15:36:43 15:40:56 41° 71° (ENE) 15:45:11 437.375
BEESAT 3 31 Aug 15:36:46 15:40:49 81° 124° (ESE) 15:44:56 437.485
JAS-2 31 Aug 15:42:51 15:50:25 60° 261° (W) 15:58:11 435.910
BEESAT 31 Aug 15:46:03 15:50:26 36° 291° (WNW) 15:54:44 436.000
BEESAT 2 31 Aug 15:48:13 15:52:19 80° 122° (ESE) 15:56:27 435.950
Gurwin Techsat 1B 31 Aug 15:48:58 15:52:52 20° 270° (W) 15:56:37 435.225
GONETS M04 31 Aug 16:01:12 16:08:37 30° 276° (W) 16:15:48
ITAMSAT 1 31 Aug 16:10:16 16:13:14 15° 272° (W) 16:15:57 435.822/435.867
AO-7 31 Aug 16:12:00 16:20:22 77° 254° (WSW) 16:28:45 29.400- 29.500
SWISSCUBE 31 Aug 16:12:40 16:16:09 20° 296° (WNW) 16:19:30 437.505
AIST 2 31 Aug 16:22:09 16:26:01 37° 117° (ESE) 16:29:58 435.215
STARS 31 Aug 16:44:53 16:49:21 79° 285° (WNW) 16:53:47 437.465
CUTE-I 31 Aug 16:52:13 16:54:35 13° 59° (ENE) 16:57:12 437.470
ISS 31 Aug 17:01:36 17:03:27 14° 227° (SW) 17:05:13 145.825
KKS-1 31 Aug 17:03:02 17:07:03 32° 291° (WNW) 17:10:59 437.445
